Lapse_Rate
7.9 8.2 8.3 8.2 8.3 8.2 8.2 8.1 7.7 7.2 7.3 7.3 7.0 7.2 7.3 7.0 7.0 7.0 7.1 7.2 7.5 7.5 7.4 7.3 7.2 7.1 7.1 7.0 7.1 7.0 6.8 6.6
7.7 7.9 7.9 7.8 8.2 8.5 8.4 7.7 7.8 7.3 7.3 7.3 7.2 6.8 6.5 6.8 6.7 7.0 7.5 7.7 7.7 7.7 7.6 7.5 7.4 7.3 7.3 7.3 7.2 6.9 6.6 6.6
7.2 7.7 8.2 8.2 8.0 8.1 8.3 7.6 7.7 7.8 7.5 6.7 6.5 6.7 6.9 7.0 6.9 7.3 7.4 7.5 7.6 7.6 7.4 7.2 7.2 7.2 7.1 7.0 6.9 6.8 6.8 6.8
7.4 7.5 7.6 7.9 8.1 8.2 8.1 7.3 7.4 7.7 7.9 7.2 6.8 6.7 6.6 6.7 6.8 7.1 7.1 7.2 7.2 7.1 7.0 7.0 6.9 7.0 7.0 6.9 6.8 6.8 6.9 6.9
7.6 7.4 7.4 7.4 8.0 8.1 8.1 7.6 7.4 7.8 7.5 7.3 6.5 6.7 6.6 6.7 7.0 6.9 7.1 7.1 7.0 7.0 6.9 6.9 6.9 6.9 6.9 6.8 6.9 6.8 6.8 6.7
8.1 7.8 7.7 7.6 7.5 8.0 8.1 7.7 7.7 7.7 7.8 7.3 6.6 6.8 6.7 7.0 7.2 7.2 7.1 6.9 6.8 6.8 6.8 6.9 6.9 6.8 6.8 6.9 6.9 6.9 6.8 6.5
8.1 8.0 7.5 7.4 7.7 7.9 7.8 7.5 7.6 7.6 7.4 7.5 6.3 6.6 6.6 6.9 6.9 6.9 6.8 6.6 6.6 6.7 6.8 6.8 6.8 6.8 6.9 6.9 6.8 6.7 6.5 6.4
8.3 8.3 8.1 8.0 7.5 7.6 7.2 6.9 6.6 7.3 7.7 7.5 6.5 6.6 6.3 6.6 6.8 6.9 6.7 6.7 6.8 6.8 6.8 6.8 6.8 6.9 6.8 6.6 6.5 6.5 6.5 6.6
8.7 8.5 8.4 8.2 7.1 6.9 6.3 6.3 6.0 6.9 7.3 7.2 6.6 6.5 6.3 6.4 6.4 6.5 6.6 6.9 7.0 6.9 6.9 6.9 6.9 6.8 6.7 6.7 6.6 6.5 6.5 6.6
8.1 8.2 8.4 7.6 7.1 6.4 6.1 6.7 6.2 6.7 6.9 6.9 6.8 6.4 6.4 6.6 6.5 6.3 6.4 6.7 6.8 6.8 6.8 6.8 6.8 6.8 6.7 6.6 6.6 6.6 6.6 6.6
8.2 8.2 8.2 6.9 6.7 5.1 5.2 6.5 6.6 6.5 6.9 7.3 7.3 6.5 6.4 6.5 6.5 6.6 6.5 6.7 6.8 6.8 6.8 6.8 6.8 6.9 6.9 6.8 6.7 6.6 6.6 6.5
8.0 8.1 7.6 6.1 5.9 6.1 6.5 6.9 7.1 7.2 7.3 7.6 7.4 6.6 6.5 6.6 6.6 6.6 6.6 6.7 6.8 6.8 6.9 7.0 7.1 7.0 6.8 6.7 6.6 6.6 6.6 6.5
7.1 7.7 6.9 6.3 6.5 6.5 7.1 7.1 7.3 7.5 7.7 7.7 7.7 6.7 6.5 6.7 6.7 6.7 6.5 6.8 6.9 6.9 7.1 7.0 6.8 6.8 6.8 6.7 6.7 6.7 6.6 6.5
7.0 7.0 6.6 6.8 6.6 6.5 6.7 6.8 7.5 7.5 7.5 7.7 7.4 6.9 6.8 6.7 6.7 6.9 6.8 6.9 7.0 7.1 7.1 6.9 6.9 6.9 6.8 6.7 6.7 6.6 6.6 6.5
6.6 6.0 6.1 6.3 6.5 6.9 6.3 7.0 7.5 7.4 7.1 7.4 7.3 6.9 6.9 6.8 6.7 6.8 6.9 6.9 7.0 7.1 7.0 6.9 6.8 6.7 6.7 6.6 6.6 6.7 6.7 6.4
6.6 7.1 6.7 6.5 6.5 7.1 6.8 7.0 7.3 7.6 7.5 7.4 6.8 6.8 6.9 7.0 6.8 6.8 6.9 7.0 6.9 7.1 6.8 6.8 6.7 6.6 6.6 6.6 6.6 6.7 6.5 6.2
6.9 6.6 6.7 6.5 7.1 7.0 6.6 6.8 7.4 7.5 7.5 7.2 7.1 7.2 7.0 7.0 7.0 7.0 6.6 6.8 6.7 6.9 6.8 6.9 6.8 6.4 6.5 6.2 6.6 6.5 6.3 6.1
7.2 7.5 7.2 7.3 6.4 6.7 6.7 7.2 7.3 7.5 7.3 7.2 7.2 7.0 6.8 6.8 7.0 7.0 6.8 6.4 6.7 6.9 7.0 6.8 6.4 6.4 6.3 6.3 6.4 6.2 6.1 6.1
7.6 7.6 7.9 7.9 7.8 7.7 7.4 7.3 7.1 7.2 7.2 7.1 7.1 7.1 6.9 6.8 6.8 6.9 6.8 6.7 6.9 6.6 7.1 6.6 6.5 6.7 6.1 6.3 6.1 6.0 6.0 5.9
Wind_Speed
16 16 13 12 11 12 12 11 13 12 9 9 6 5 5 8 8 9 12 12 12 12 9 8 8 3 4 4 5 5 3 7
8 12 13 13 13 14 15 15 14 13 11 9 6 5 4 3 6 10 11 12 12 11 7 7 7 4 4 4 3 6 4 2
12 15 16 18 17 16 15 15 14 12 10 7 4 6 3 4 5 8 10 11 11 10 7 4 5 4 5 4 3 3 2 3
16 18 19 16 18 18 16 16 15 10 11 9 6 6 5 3 3 3 4 10 11 12 10 7 5 4 4 3 2 4 3 4
18 20 20 21 18 15 15 15 15 11 14 12 15 7 7 3 4 3 4 10 9 11 11 10 7 5 5 3 2 2 3 4
22 23 24 21 17 15 13 15 13 15 15 14 10 11 4 5 5 7 6 5 10 11 11 10 6 5 4 5 5 5 2 2
19 16 14 14 12 11 11 12 12 13 12 12 12 13 11 9 7 6 4 3 3 8 10 9 9 7 5 4 5 6 5 4
14 16 15 14 16 11 10 12 9 8 11 12 12 14 13 13 11 7 8 4 3 5 6 6 4 7 8 8 5 5 4 4
17 18 18 19 16 13 13 13 11 11 12 11 10 12 8 8 8 7 5 4 5 6 7 8 9 10 10 9 4 4 5 5
9 11 14 18 16 16 15 15 12 11 11 11 10 10 10 10 10 7 5 5 5 6 9 6 9 10 10 8 4 5 5 4
10 13 14 13 16 16 13 12 15 12 11 11 10 10 9 10 10 10 8 6 6 7 7 6 7 9 10 8 5 4 7 4
7 9 9 9 9 13 15 12 10 10 11 9 10 8 9 10 10 10 9 7 8 8 8 7 7 7 6 7 6 5 7 6
3 6 8 7 8 10 14 11 12 10 9 10 10 8 9 10 10 10 9 9 7 8 8 8 7 6 5 7 7 5 7 6
7 5 9 12 12 9 11 10 10 10 10 12 11 10 9 9 10 9 9 9 7 6 7 8 7 6 6 5 7 7 7 6
6 10 10 11 12 13 12 12 11 12 11 12 12 11 11 11 10 10 10 8 8 6 5 6 6 6 8 8 9 8 7 6
9 9 8 7 10 12 12 11 11 12 12 11 11 11 12 12 12 12 11 9 7 8 8 6 6 7 7 10 11 9 9 6
13 16 10 13 15 14 13 14 13 12 12 12 12 12 12 13 11 12 12 10 9 8 10 9 7 5 20 19 13 8 7 6
7 14 18 14 15 17 19 17 15 15 14 14 14 15 14 13 13 11 9 10 10 8 9 9 7 7 20 19 17 6 6 5
6 7 5 7 12 14 14 17 17 16 15 15 14 14 13 13 12 12 11 10 11 9 8 8 8 8 19 18 17 7 6 4
Wind_Direction
194 173 171 168 162 160 148 146 139 133 126 124 114 103 96 102 100 96 107 103 103 103 91 91 97 93 83 75 83 59 81 103
168 161 156 156 162 161 159 153 153 145 146 141 131 125 118 90 84 99 105 112 111 112 104 97 86 84 107 105 83 99 73 93
171 170 167 175 169 167 162 160 160 156 152 147 129 139 118 114 113 102 107 109 113 112 111 99 89 93 77 79 92 116 86 14
177 180 179 173 175 172 169 162 162 158 138 118 107 98 105 111 106 99 99 109 112 114 110 110 99 91 92 87 103 129 131 33
181 181 180 181 181 169 168 167 162 153 150 142 152 149 147 144 130 124 108 113 113 116 114 108 101 99 97 92 87 130 125 139
188 188 186 180 166 171 174 173 164 159 158 155 153 145 126 130 124 121 116 105 115 112 113 112 106 105 99 104 86 80 83 123
195 183 165 163 158 165 174 176 167 165 156 148 151 142 143 139 142 137 134 120 107 114 119 119 121 117 115 106 87 81 83 87
178 167 167 158 161 163 168 171 162 166 147 149 158 152 156 153 154 151 146 135 126 138 125 126 121 124 115 109 98 96 95 99
175 167 162 155 163 165 164 162 171 165 156 156 157 149 159 154 151 149 144 143 141 137 124 124 123 120 109 103 98 96 89 86
147 155 162 163 161 179 172 159 169 165 163 154 153 149 163 157 142 138 142 128 131 128 127 113 114 113 111 101 98 98 91 87
158 168 177 186 167 168 161 163 164 166 155 155 153 156 158 149 140 138 140 137 120 125 118 115 111 111 112 106 96 93 100 84
187 182 172 180 197 172 157 161 147 155 154 148 138 147 149 148 140 140 142 129 132 125 126 120 121 118 115 111 104 99 98 92
165 167 165 160 172 170 160 160 160 166 155 140 130 127 144 144 134 135 133 132 128 131 127 124 125 122 123 123 118 107 109 105
311 240 187 178 171 174 175 166 167 159 149 135 134 144 141 126 124 125 120 126 122 120 128 132 131 129 119 102 112 108 101 98
216 271 206 197 177 176 192 168 165 159 153 148 142 152 140 130 125 125 122 125 124 113 107 119 126 123 119 116 108 105 104 97
220 227 218 201 191 181 181 172 167 156 152 146 152 146 136 131 138 135 130 136 138 135 127 116 119 129 129 125 122 117 116 112
222 228 194 186 189 185 181 172 165 155 152 152 147 142 140 142 145 144 138 134 140 148 143 137 134 148 144 139 134 131 130 129
249 254 229 197 194 187 186 174 160 161 158 155 155 152 149 146 139 137 135 141 140 150 142 142 142 154 146 150 144 131 133 130
281 323 304 205 191 179 163 163 164 163 157 155 158 151 147 146 145 153 157 154 156 148 145 149 149 161 154 158 152 131 124 118